This is the latest recevied weather packets stored in our database for station/object WD4LSS. If no packets are shown the sender has not sent any weather packets the latest 10 day(s).
| Time | Temp. | Humidity | Pressure | Rain* | Wind** | Luminosity | Snow |
|---|---|---|---|---|---|---|---|
| 1777480216 | 16.67° C | 95% | 1013 hPa | 0 mm | - | - | - |
| 1777479015 | 16.67° C | 95% | 1013 hPa | 0 mm | - | - | - |
| 1777477515 | 16.67° C | 95% | 1013.2 hPa | 0 mm | - | - | - |
| 1777477236 | 16.67° C | 95% | 1013.1 hPa | 0 mm | - | - | - |
| 1777476036 | 16.67° C | 94% | 1013.3 hPa | 0 mm | - | - | - |
| 1777475718 | 16.67° C | 94% | 1013.4 hPa | 0 mm | - | - | - |
| 1777473618 | 16.67° C | 95% | 1013.4 hPa | 0 mm | - | - | - |
| 1777473017 | 16.11° C | 96% | 1013.2 hPa | 0 mm | - | - | - |
| 1777471517 | 16.11° C | 96% | 1013.3 hPa | 0 mm | - | - | - |
| 1777469417 | 15.56° C | 97% | 1013.8 hPa | 0 mm | - | - | - |
| 1777458317 | 13.33° C | 98% | 1015.4 hPa | 0 mm | - | - | - |
| 1777456537 | 12.78° C | 98% | 1015.1 hPa | 0 mm | - | - | - |
| 1777455617 | 12.78° C | 98% | 1015.3 hPa | 0 mm | - | - | - |
| 1777455017 | 12.78° C | 98% | 1015.4 hPa | 0 mm | - | - | - |
| 1777453517 | 12.78° C | 98% | 1015.3 hPa | 0 mm | - | - | - |
| 1777452317 | 12.22° C | 98% | 1015.6 hPa | 0 mm | - | - | - |
| 1777449337 | 12.22° C | 97% | 1014.6 hPa | 0 mm | - | - | - |
| 1777448417 | 12.22° C | 96% | 1014.5 hPa | 0 mm | - | - | - |
| 1777446316 | 12.22° C | 96% | 1015 hPa | 0 mm | - | - | - |
| 1777444216 | 12.22° C | 96% | 1015.5 hPa | 0 mm | - | - | - |
| 1777441216 | 12.22° C | 95% | 1015.7 hPa | 0 mm | - | - | - |
| 1777437316 | 12.78° C | 95% | 1016.7 hPa | 0 mm | - | - | - |
| 1777436136 | 12.78° C | 94% | 1017.2 hPa | 0 mm | - | - | - |
| 1777435216 | 12.78° C | 94% | 1017.3 hPa | 0 mm | - | - | - |
| 1777434617 | 12.78° C | 94% | 1017.6 hPa | 0 mm | - | - | - |
* Rain latest hour (hover to see other rain measurements)
** Current wind speed in m/s (hover to see current wind gust speed)